Preview of NWS' New Version of Forecast
This preview is not operational and should not be used for support decisions.

Regional Weather Roundup (RWR)

Issued by National Weather Service (NWS)

                            
000
ASCA42 TJSJ 171510
RWRPR 
PUERTO RICO/U.S. VIRGIN ISLANDS HOURLY WEATHER ROUNDUP
NATIONAL WEATHER SERVICE SAN JUAN PR
1100 AM AST WED APR 17 2019

PRZ001>002-007>008-010-171600-
PUERTO RICO
  
CITY           SKY/WX    TMP DP  RH WIND       PRES   REMARKS
SAN JUAN LMM   MOSUNNY   84  70  61 NE21      30.04S                  
AGUADILLA      SUNNY     82  70  65 E14G23    30.06S                  
CEIBA            N/A    N/A N/A N/A MISG      30.06S                  
$$

VIZ001>002-171600-
U.S. VIRGIN ISLANDS
  
CITY           SKY/WX    TMP DP  RH WIND       PRES   REMARKS
CHARLOTTE AMA  MOSUNNY   88  64  45 E18G24    30.03F                  
CHRISTIANSTED  MOSUNNY   86  68  54 E23       30.04S                  
$$

HOURLY WEATHER ROUNDUP FOR THE NEWS MEDIA
  
CITY           SKY/WX    TMP DP  RH WIND       PRES   REMARKS
ORLANDO        FAIR      77  60  55 E10G21    30.15R                  
NEW YORK       PTSUNNY   55  27  34 E5        30.18S                  
NEWARK         PTSUNNY   54  25  32 E7        30.17S                  
CHICAGO        CLOUDY    51  45  79 E5        29.88F                  
HARTFORD       FAIR      55  27  34 VRB5      30.14S                  
BOSTON         FAIR      56  22  26 N15G22    30.14F                  
DALLAS         DRIZZLE   69  65  86 SE14      29.82F FOG              
PHILADELPHIA   PTSUNNY   58  39  49 E9        30.15R                  
LOS ANGELES    MOSUNNY   59  51  75 E7        30.14R                  
WASHINGTON DC  PTSUNNY   65  43  44 N7        30.09F